• In Italy
  • List of Countries
  • For 7 days
  • Water Temperature
  • Satellite Maps
  • Weather Map
  • Weather Widgets
  • user-avatar
    Login

    Hourly Weather Medan

    Today, 25 September, Monday

    Time Temperature Precipitation Wind Pressure Humidity
    00:00 +27°C° 0 mm 1 mps 756 mmHg 89%
    01:00 +26°C° 0 mm 1 mps 756 mmHg 89%
    02:00 +26°C° 0 mm 1 mps 755 mmHg 89%
    03:00 +26°C° 0 mm 1 mps 755 mmHg 88%
    04:00 +26°C° 0 mm 1 mps 755 mmHg 88%
    05:00 +26°C° 0 mm 1 mps 755 mmHg 87%
    06:00 +26°C° 0 mm 1 mps 755 mmHg 85%
    07:00 +27°C° 0 mm 1 mps 755 mmHg 81%
    08:00 +30°C° 0 mm 1 mps 755 mmHg 71%
    09:00 +32°C° 0 mm 1 mps 755 mmHg 60%
    10:00 +35°C° 0 mm 1 mps 755 mmHg 50%
    11:00 +36°C° 0 mm 1 mps 755 mmHg 48%
    12:00 +37°C° 0 mm 2 mps 754 mmHg 47%
    13:00 +38°C° 0 mm 2 mps 754 mmHg 45%
    14:00 +37°C° 0.1 mm 2 mps 753 mmHg 50%
    15:00 +36°C° 0.1 mm 2 mps 753 mmHg 56%
    16:00 +35°C° 0.1 mm 3 mps 753 mmHg 61%
    17:00 +32°C° 0.4 mm 2 mps 753 mmHg 69%
    18:00 +30°C° 0.4 mm 1 mps 753 mmHg 78%
    19:00 +26°C° 0.4 mm 0 mps 753 mmHg 87%
    20:00 +26°C° 0 mm 0 mps 754 mmHg 87%
    21:00 +28°C° 0 mm 1 mps 755 mmHg 88%
    22:00 +27°C° 0 mm 1 mps 755 mmHg 89%
    23:00 +27°C° 0 mm 1 mps 755 mmHg 89%

    Tomorrow, 26 September, Tuesday

    Time Temperature Precipitation Wind Pressure Humidity
    00:00 +27°C° 0 mm 1 mps 755 mmHg 88%
    01:00 +27°C° 0 mm 1 mps 755 mmHg 88%
    02:00 +26°C° 0.2 mm 1 mps 755 mmHg 86%
    03:00 +26°C° 0.2 mm 1 mps 754 mmHg 84%
    04:00 +26°C° 0.2 mm 1 mps 754 mmHg 83%
    05:00 +26°C° 0.1 mm 1 mps 755 mmHg 81%
    06:00 +26°C° 0.1 mm 1 mps 755 mmHg 80%
    07:00 +26°C° 0.1 mm 1 mps 755 mmHg 79%
    08:00 +29°C° 0 mm 1 mps 756 mmHg 69%
    09:00 +32°C° 0 mm 1 mps 756 mmHg 59%
    10:00 +35°C° 0 mm 1 mps 756 mmHg 49%
    11:00 +35°C° 0 mm 1 mps 756 mmHg 47%
    12:00 +36°C° 0 mm 1 mps 755 mmHg 45%
    13:00 +38°C° 0 mm 2 mps 755 mmHg 43%
    14:00 +37°C° 0 mm 2 mps 754 mmHg 47%
    15:00 +36°C° 0 mm 2 mps 753 mmHg 52%
    16:00 +35°C° 0 mm 3 mps 753 mmHg 56%
    17:00 +32°C° 0.1 mm 2 mps 753 mmHg 66%
    18:00 +31°C° 0.1 mm 1 mps 753 mmHg 75%
    19:00 +29°C° 0.1 mm 1 mps 754 mmHg 85%
    20:00 +28°C° 0.5 mm 1 mps 755 mmHg 87%
    21:00 +28°C° 0.5 mm 1 mps 755 mmHg 88%
    22:00 +26°C° 0.5 mm 0 mps 756 mmHg 90%
    23:00 +27°C° 0.4 mm 1 mps 756 mmHg 90%

    Day after tomorrow, 27 September, Wednesday

    Time Temperature Precipitation Wind Pressure Humidity
    00:00 +27°C° 0.4 mm 1 mps 756 mmHg 91%
    01:00 +27°C° 0.4 mm 1 mps 756 mmHg 91%
    02:00 +27°C° 0.1 mm 1 mps 755 mmHg 90%
    03:00 +27°C° 0.1 mm 1 mps 755 mmHg 90%
    04:00 +26°C° 0.1 mm 1 mps 754 mmHg 89%
    05:00 +27°C° 0 mm 1 mps 755 mmHg 87%
    06:00 +27°C° 0 mm 1 mps 755 mmHg 86%
    07:00 +27°C° 0 mm 1 mps 756 mmHg 84%
    08:00 +30°C° 0 mm 1 mps 756 mmHg 73%
    09:00 +33°C° 0 mm 1 mps 756 mmHg 63%
    10:00 +33°C° 0 mm 0 mps 757 mmHg 52%
    11:00 +36°C° 0.2 mm 1 mps 756 mmHg 51%
    12:00 +36°C° 0.2 mm 1 mps 756 mmHg 51%
    13:00 +37°C° 0.2 mm 2 mps 755 mmHg 50%
    14:00 +36°C° 0.5 mm 2 mps 754 mmHg 54%
    15:00 +35°C° 0.5 mm 2 mps 754 mmHg 58%
    16:00 +35°C° 0.5 mm 2 mps 753 mmHg 62%
    17:00 +32°C° 0.5 mm 2 mps 754 mmHg 70%
    18:00 +30°C° 0.5 mm 1 mps 754 mmHg 77%
    19:00 +29°C° 0.5 mm 1 mps 755 mmHg 85%
    20:00 +28°C° 1 mm 1 mps 755 mmHg 86%
    21:00 +28°C° 1 mm 1 mps 756 mmHg 88%
    22:00 +25°C° 1 mm 0 mps 757 mmHg 90%
    23:00 +27°C° 0.3 mm 1 mps 757 mmHg 90%

    28 September, Thursday

    Time Temperature Precipitation Wind Pressure Humidity
    00:00 +27°C° 0.3 mm 1 mps 756 mmHg 90%
    01:00 +27°C° 0.3 mm 1 mps 756 mmHg 89%
    02:00 +27°C° 0.1 mm 1 mps 755 mmHg 89%
    03:00 +27°C° 0.1 mm 1 mps 755 mmHg 88%
    04:00 +26°C° 0.1 mm 1 mps 754 mmHg 88%
    05:00 +26°C° 0.1 mm 1 mps 755 mmHg 86%
    06:00 +27°C° 0.1 mm 1 mps 755 mmHg 85%
    07:00 +27°C° 0.1 mm 1 mps 756 mmHg 84%
    08:00 +29°C° 0 mm 1 mps 756 mmHg 73%
    09:00 +32°C° 0 mm 1 mps 756 mmHg 63%
    10:00 +35°C° 0 mm 1 mps 757 mmHg 53%
    11:00 +35°C° 0 mm 1 mps 756 mmHg 51%
    12:00 +36°C° 0 mm 1 mps 755 mmHg 49%
    13:00 +38°C° 0 mm 2 mps 754 mmHg 47%
    14:00 +37°C° 0.3 mm 2 mps 754 mmHg 52%
    15:00 +36°C° 0.3 mm 2 mps 753 mmHg 56%
    16:00 +35°C° 0.3 mm 2 mps 753 mmHg 61%
    17:00 +32°C° 0.6 mm 2 mps 753 mmHg 70%
    18:00 +30°C° 0.6 mm 2 mps 754 mmHg 79%
    19:00 +28°C° 0.6 mm 1 mps 755 mmHg 87%
    20:00 +28°C° 0.8 mm 1 mps 755 mmHg 89%
    21:00 +28°C° 0.8 mm 1 mps 756 mmHg 90%
    22:00 +27°C° 0.8 mm 1 mps 756 mmHg 91%
    23:00 +27°C° 0.8 mm 1 mps 756 mmHg 92%

    29 September, Friday

    Time Temperature Precipitation Wind Pressure Humidity
    00:00 +27°C° 0.8 mm 1 mps 756 mmHg 92%
    01:00 +27°C° 0.8 mm 1 mps 756 mmHg 92%
    02:00 +27°C° 0.4 mm 1 mps 755 mmHg 91%
    03:00 +27°C° 0.4 mm 1 mps 755 mmHg 91%
    04:00 +26°C° 0.4 mm 1 mps 755 mmHg 90%
    05:00 +26°C° 0.1 mm 1 mps 755 mmHg 89%
    06:00 +27°C° 0.1 mm 1 mps 756 mmHg 89%
    07:00 +27°C° 0.1 mm 1 mps 756 mmHg 88%
    08:00 +29°C° 0 mm 1 mps 757 mmHg 79%
    09:00 +31°C° 0 mm 1 mps 757 mmHg 70%
    10:00 +33°C° 0 mm 1 mps 757 mmHg 61%
    11:00 +34°C° 0 mm 1 mps 756 mmHg 58%
    12:00 +35°C° 0 mm 1 mps 755 mmHg 55%
    13:00 +35°C° 0 mm 1 mps 755 mmHg 52%
    14:00 +36°C° 0.6 mm 2 mps 754 mmHg 57%
    15:00 +35°C° 0.6 mm 2 mps 754 mmHg 63%
    16:00 +34°C° 0.6 mm 2 mps 753 mmHg 69%
    17:00 +31°C° 1.3 mm 2 mps 754 mmHg 75%
    18:00 +30°C° 1.3 mm 1 mps 755 mmHg 82%
    19:00 +28°C° 1.3 mm 1 mps 755 mmHg 89%
    20:00 +28°C° 1.1 mm 1 mps 756 mmHg 89%
    21:00 +28°C° 1.1 mm 1 mps 756 mmHg 89%
    22:00 +26°C° 1.1 mm 0 mps 757 mmHg 90%
    23:00 +27°C° 1.4 mm 1 mps 756 mmHg 91%

    30 September, Saturday

    Time Temperature Precipitation Wind Pressure Humidity
    00:00 +27°C° 1.4 mm 1 mps 756 mmHg 92%
    01:00 +27°C° 1.4 mm 1 mps 756 mmHg 93%
    02:00 +27°C° 0.3 mm 1 mps 756 mmHg 93%
    03:00 +27°C° 0.3 mm 1 mps 755 mmHg 92%
    04:00 +26°C° 0.3 mm 1 mps 755 mmHg 92%
    05:00 +27°C° 0.3 mm 1 mps 756 mmHg 91%
    06:00 +27°C° 0.3 mm 1 mps 756 mmHg 90%
    07:00 +27°C° 0.3 mm 1 mps 757 mmHg 89%
    08:00 +27°C° 0.6 mm 0 mps 757 mmHg 83%
    09:00 +28°C° 0.6 mm 0 mps 757 mmHg 77%
    10:00 +30°C° 0.6 mm 0 mps 758 mmHg 71%
    11:00 +33°C° 0.8 mm 1 mps 757 mmHg 69%
    12:00 +33°C° 0.8 mm 1 mps 756 mmHg 66%
    13:00 +34°C° 0.8 mm 1 mps 755 mmHg 64%
    14:00 +34°C° 0.5 mm 1 mps 755 mmHg 65%
    15:00 +34°C° 0.5 mm 2 mps 755 mmHg 66%
    16:00 +34°C° 0.5 mm 2 mps 754 mmHg 68%
    17:00 +31°C° 1.3 mm 2 mps 755 mmHg 74%
    18:00 +30°C° 1.3 mm 1 mps 755 mmHg 81%
    19:00 +28°C° 1.3 mm 1 mps 756 mmHg 88%
    20:00 +28°C° 0.4 mm 1 mps 756 mmHg 88%
    21:00 +28°C° 0.4 mm 1 mps 757 mmHg 89%
    22:00 +27°C° 0.4 mm 1 mps 757 mmHg 90%
    23:00 +27°C° 0.8 mm 1 mps 757 mmHg 91%
    Show more